Tracking 35237 objects as of 6-Sep-2026
HD Live streaming from Space Station
objects crossing your sky now

STARLINK-35387

Track STARLINK-35387 now!
10-day predictions
STARLINK-35387 is classified as:


NORAD ID: 65909
Int'l Code: 2025-224AD
Launch date: October 7, 2025
Source: United States (US)
Launch site: AIR FORCE EASTERN TEST RANGE (AFETR)
Your satellite tracking list
Your tracking list is empty




NASA's NSSDC Master Catalog

Two Line Element Set (TLE):
1 65909U 25224AD  26248.30606676  .00006938  00000-0  21631-3 0  9992
2 65909  53.1586 256.3882 0001237  79.7694 280.3448 15.34395071 52338
Source of the keplerian elements: AFSPC